Location: *
(46.4000°N, 12.6667°E)
Time: 07:23:44
(UTC+00:00)

H-2A R/B - Pass Details

Date: 09 April 2020
Orbit: 734 x 836 km, 98.2° (Epoch: 02 June)

Event Time Altitude Azimuth Distance (km) Brightness Sun altitude
Rises 18:16:13 0° 155° (SSE) 3,285 4.9 -5.3°
Reaches altitude 10° 18:18:34 10° 153° (SSE) 2,345 4.1 -5.7°
Maximum altitude 18:23:41 65° 73° (ENE) 852 2.1 -6.5°
Drops below altitude 10° 18:28:41 10° 352° (N) 2,297 4.9 -7.3°
Sets 18:30:58 0° 350° (N) 3,214 5.7 -7.7°
